Location: Unspecified
(49.2170°N, 0.0000°E)
Time: 04:22:45
(UTC+00:00)

A-11 Canister half - Pass Details

Date: 20 June 2019
Orbit: 1526 x 1683 km, 47.3° (Epoch: 19 July)

Event Time Altitude Azimuth Distance (km) Brightness Sun altitude
Rises 11:45:13 0° 289° (WNW) 4,681 11.4 64.0°
Reaches altitude 10° 11:48:41 10° 280° (W) 3,698 11.1 64.1°
Maximum altitude 11:56:24 31° 223° (SW) 2,455 10.9 64.2°
Drops below altitude 10° 12:04:15 10° 166° (SSE) 3,746 11.6 64.2°
Sets 12:07:48 0° 156° (SSE) 4,749 11.9 64.2°
